Temp
63 63 63 63 63 63 63 63 63 62 62 62 62 62 62 62 61 56 50 59 62 67 66 62 60 59 58 54 56 53 42 38 45 46 50 54 54 60 60 59 57 58 58 59 64
62 62 63 62 62 62 63 63 63 62 62 62 62 62 62 62 53 50 60 65 67 66 59 56 54 56 51 52 52 47 39 43 50 53 51 54 53 54 56 56 55 55 59 61 61
61 60 61 62 61 62 62 62 62 62 62 61 62 61 61 59 47 51 64 65 66 64 59 58 57 55 48 50 50 47 42 47 52 54 55 53 54 56 53 52 57 56 57 58 58
60 60 60 60 61 61 62 62 62 62 62 62 61 61 60 54 38 55 64 65 64 60 57 56 54 48 46 46 52 44 51 53 53 54 54 51 53 54 51 55 60 61 60 57 57
60 59 60 60 60 61 61 61 62 61 60 61 61 61 53 43 44 60 64 63 60 58 54 52 50 49 45 47 49 44 48 53 54 54 53 54 54 53 53 57 59 57 58 57 57
58 58 59 59 59 59 60 60 60 59 60 60 61 61 47 36 57 60 59 59 59 55 53 53 51 53 49 48 47 49 50 52 53 53 54 52 50 52 55 55 58 57 56 57 57
59 58 58 58 59 59 59 59 60 60 60 61 61 57 47 44 58 57 58 55 57 56 51 54 54 49 50 47 51 50 45 48 49 50 51 52 47 46 56 57 57 58 58 57 57
57 57 57 57 58 58 58 59 59 59 60 60 60 54 44 59 59 55 56 54 58 58 56 57 56 51 48 51 48 43 42 36 46 50 51 53 42 50 55 52 53 56 56 57 57
56 56 56 57 57 58 58 58 59 59 60 60 50 48 42 60 51 54 55 50 53 54 55 61 54 47 46 39 34 36 28 33 41 50 50 47 38 51 57 52 52 53 54 55 56
56 56 56 56 57 57 58 58 57 57 54 54 51 42 47 45 53 54 53 53 49 48 48 47 44 38 36 35 30 29 31 36 37 46 45 42 43 48 52 52 50 51 52 52 54
55 55 56 55 56 57 55 50 43 41 44 39 40 43 46 52 57 51 53 49 47 43 34 40 36 33 38 41 40 39 35 34 38 47 43 44 44 46 51 49 48 49 50 49 52
55 55 55 55 55 56 52 44 46 44 34 43 45 46 51 54 45 47 54 43 40 36 37 36 34 41 42 41 39 37 32 31 38 44 41 39 38 44 48 51 52 51 50 51 51
54 54 54 54 54 50 46 46 51 50 35 37 43 43 45 49 44 43 48 45 40 36 36 32 36 43 40 36 35 36 34 33 34 40 41 37 36 38 44 47 49 49 51 52 53
53 53 53 54 47 45 42 49 53 49 28 30 35 40 45 46 39 51 50 46 42 36 39 35 41 38 36 35 37 30 40 39 37 33 27 38 26 35 40 45 49 52 50 51 51
53 53 53 53 43 40 45 51 52 42 15 32 36 47 46 40 42 42 50 46 36 36 37 33 33 34 34 36 39 35 41 38 37 32 30 30 25 31 40 39 45 50 53 54 52
53 53 52 46 45 46 49 45 43 26 16 27 36 35 34 39 40 41 42 48 43 37 37 38 41 39 39 40 41 41 36 36 34 32 24 32 30 28 33 41 44 47 49 48 48
53 52 49 45 39 46 44 37 21 19 30 27 30 35 34 34 35 38 35 33 31 26 27 33 34 37 41 35 38 38 33 24 21 22 22 33 27 36 38 39 44 46 48 44 44
53 51 47 45 45 44 40 28 14 24 26 32 33 34 30 34 34 35 33 30 34 31 27 25 22 33 38 36 32 34 35 23 15 17 23 31 26 34 43 51 48 42 42 43 42
52 38 37 41 44 43 32 19 19 24 32 30 31 27 27 33 31 32 30 30 35 34 28 25 26 34 39 39 41 31 30 40 27 16 21 24 30 39 40 42 41 40 41 41 42
35 34 36 43 44 38 27 23 24 31 32 30 26 28 23 26 27 28 29 34 33 37 40 31 24 33 37 39 41 37 42 28 28 14 13 21 25 31 32 37 39 38 38 38 40
34 31 36 44 41 31 21 22 26 33 33 28 26 25 23 24 28 25 26 31 38 36 38 36 31 26 33 32 32 33 33 31 33 26 23 19 22 33 38 37 40 40 40 39 38
33 25 37 42 28 27 23 24 31 30 34 30 29 26 25 19 26 26 24 29 32 37 30 38 31 25 27 33 41 39 35 33 27 23 27 28 26 36 36 38 41 38 38 37 37
30 28 39 38 20 22 24 23 28 29 29 28 26 27 26 24 18 25 26 32 32 33 32 35 28 22 23 27 30 31 34 36 36 30 25 22 24 35 35 38 39 36 37 36 34
29 22 23 32 22 23 23 18 21 31 29 30 28 28 25 23 22 18 24 31 33 33 37 32 29 26 23 27 29 25 32 33 33 25 27 27 28 28 31 35 36 36 35 33 32
29 21 19 20 22 18 25 25 23 21 29 31 26 24 25 19 16 13 24 26 30 35 33 31 24 26 29 29 31 31 31 31 29 31 27 30 31 29 33 35 35 34 33 32 30
26 21 15 13 25 24 25 17 23 26 26 25 23 26 22 18 23 16 22 22 25 25 23 28 20 27 25 29 30 28 32 33 33 33 32 30 28 35 36 32 32 33 32 29 27
26 28 25 22 17 16 15 18 26 29 30 32 30 26 21 22 29 29 26 24 25 25 21 23 19 16 17 23 19 18 28 31 32 35 34 27 34 36 33 35 32 31 31 28 27
MSLP
1019.56 1019.41 1019.64 1019.59 1019.52 1019.34 1019.44 1019.54 1019.62 1019.66 1019.61 1019.60 1019.56 1019.45 1019.29 1019.17 1019.03 1018.97 1018.68 1017.55 1017.15 1016.97 1016.75 1016.52 1016.43 1016.49 1016.58 1016.74 1016.69 1017.18 1018.26 1018.22 1016.98 1016.03 1014.71 1013.62 1013.06 1012.35 1011.96 1012.06 1012.64 1013.47 1013.78 1014.00 1014.05
1019.36 1019.23 1019.16 1019.25 1019.29 1019.19 1019.08 1019.14 1019.27 1019.32 1019.35 1019.36 1019.27 1019.21 1019.17 1019.02 1018.92 1018.40 1017.47 1017.12 1016.98 1016.88 1016.85 1016.82 1016.76 1016.79 1016.94 1016.83 1016.86 1017.19 1017.90 1017.14 1015.90 1014.86 1014.12 1013.71 1013.48 1013.07 1012.76 1012.71 1013.41 1014.05 1014.37 1014.52 1014.63
1019.02 1019.00 1018.97 1018.95 1018.99 1019.00 1018.92 1018.90 1018.88 1018.99 1018.96 1019.19 1019.15 1019.16 1019.24 1019.05 1018.90 1017.54 1017.08 1016.89 1016.71 1017.03 1017.05 1016.98 1017.08 1017.15 1017.20 1016.94 1016.99 1017.02 1016.89 1016.08 1015.30 1014.46 1014.00 1013.90 1013.76 1013.64 1013.37 1013.32 1013.31 1013.85 1014.75 1015.04 1015.19
1018.67 1018.71 1018.73 1018.79 1018.70 1018.78 1018.79 1018.72 1018.72 1018.68 1018.89 1019.10 1019.18 1019.32 1019.37 1019.48 1019.12 1017.24 1017.06 1016.98 1016.95 1017.23 1017.24 1017.14 1017.28 1017.35 1017.29 1017.06 1016.59 1016.74 1016.11 1015.62 1015.03 1014.74 1014.31 1014.23 1014.18 1014.04 1013.87 1013.49 1013.13 1013.29 1013.88 1015.00 1015.32
1018.28 1018.29 1018.34 1018.30 1018.37 1018.51 1018.49 1018.49 1018.45 1018.51 1018.74 1018.91 1019.03 1019.22 1019.54 1019.57 1018.59 1017.31 1017.07 1017.07 1017.08 1017.28 1017.44 1017.49 1017.54 1017.20 1017.08 1016.75 1016.56 1016.38 1015.89 1015.35 1015.06 1014.94 1014.78 1014.50 1014.42 1014.43 1013.97 1013.69 1013.77 1013.84 1014.22 1014.72 1015.19
1017.93 1017.95 1017.90 1018.03 1018.06 1018.17 1018.10 1018.22 1018.32 1018.35 1018.54 1018.62 1018.79 1019.00 1019.42 1019.08 1017.63 1017.19 1017.17 1017.12 1017.08 1017.28 1017.41 1017.56 1017.29 1017.05 1016.96 1016.64 1016.49 1015.90 1015.77 1015.51 1015.15 1015.07 1014.96 1014.96 1014.69 1014.73 1013.84 1013.64 1013.97 1014.30 1014.37 1014.58 1014.76
1017.47 1017.45 1017.52 1017.56 1017.64 1017.65 1017.80 1017.92 1017.97 1018.07 1018.28 1018.34 1018.47 1018.74 1018.34 1016.90 1017.01 1017.02 1017.17 1017.28 1017.09 1016.94 1017.18 1017.30 1017.13 1017.44 1017.08 1016.81 1016.30 1015.96 1016.06 1015.75 1015.21 1015.01 1014.94 1015.11 1014.75 1014.31 1013.81 1013.81 1013.94 1014.16 1014.22 1014.32 1014.38
1016.98 1016.98 1016.92 1017.00 1017.12 1017.29 1017.36 1017.52 1017.69 1017.92 1017.99 1018.01 1018.19 1018.45 1016.21 1015.95 1016.38 1016.94 1017.04 1017.36 1017.13 1016.99 1016.88 1016.81 1017.02 1017.45 1017.29 1016.92 1016.59 1016.43 1016.42 1016.19 1015.18 1015.10 1014.92 1015.00 1013.61 1013.61 1013.32 1013.78 1013.97 1013.80 1013.93 1013.98 1013.86
1016.41 1016.52 1016.56 1016.53 1016.55 1016.79 1017.02 1017.20 1017.42 1017.56 1017.55 1017.76 1018.24 1018.42 1016.11 1015.04 1015.73 1016.26 1016.83 1017.47 1017.16 1017.04 1016.87 1016.64 1016.78 1017.33 1017.36 1017.52 1017.72 1017.06 1016.54 1016.17 1015.72 1014.93 1015.08 1014.92 1013.78 1013.33 1013.12 1013.56 1013.63 1013.53 1013.60 1013.68 1013.56
1015.91 1015.89 1016.04 1016.09 1016.18 1016.36 1016.61 1016.87 1017.02 1017.16 1017.32 1017.83 1017.86 1018.56 1015.74 1014.90 1015.09 1015.53 1016.04 1016.87 1017.24 1017.15 1017.24 1016.98 1016.99 1017.17 1017.38 1017.32 1016.20 1017.08 1017.06 1016.27 1015.38 1014.70 1014.75 1014.51 1013.77 1013.54 1013.26 1013.36 1013.51 1013.41 1013.27 1013.45 1013.34
1015.48 1015.47 1015.47 1015.59 1015.69 1015.79 1016.19 1016.70 1017.10 1016.91 1016.72 1015.61 1015.43 1014.72 1013.68 1013.75 1014.41 1014.69 1015.21 1016.47 1017.24 1017.41 1017.31 1017.11 1017.32 1015.86 1013.68 1016.04 1016.50 1016.42 1016.58 1016.27 1015.47 1014.74 1014.83 1014.31 1014.23 1013.96 1013.55 1013.42 1013.25 1013.30 1013.21 1013.05 1013.03
1014.70 1014.79 1014.92 1015.12 1015.19 1015.22 1015.33 1014.89 1014.56 1014.98 1015.34 1014.99 1014.82 1014.73 1013.96 1013.90 1014.37 1014.76 1015.11 1016.23 1016.96 1016.91 1017.36 1017.58 1015.75 1014.15 1015.76 1016.28 1016.63 1016.82 1016.82 1016.27 1015.96 1015.26 1015.12 1014.80 1014.10 1013.67 1013.35 1012.79 1012.86 1012.74 1012.88 1012.65 1012.49
1013.99 1014.16 1014.20 1014.47 1014.73 1014.88 1014.55 1013.81 1014.46 1014.86 1014.66 1013.78 1013.49 1013.42 1013.60 1014.37 1013.65 1014.10 1014.64 1015.20 1015.76 1016.36 1016.41 1016.06 1014.47 1014.96 1015.59 1015.93 1016.37 1016.03 1016.20 1016.14 1016.07 1015.46 1015.18 1015.21 1014.08 1013.59 1013.06 1012.52 1012.33 1012.04 1011.98 1012.08 1012.14
1013.32 1013.39 1013.60 1013.87 1014.51 1014.29 1013.54 1014.02 1013.97 1014.19 1013.63 1012.29 1012.18 1011.16 1012.43 1013.34 1013.46 1013.16 1013.76 1014.19 1015.04 1015.19 1016.13 1016.26 1015.25 1015.08 1015.26 1015.37 1015.62 1015.73 1015.29 1016.02 1016.40 1016.65 1016.32 1015.54 1014.59 1013.49 1012.75 1012.24 1011.66 1011.58 1011.54 1011.48 1011.49
1012.42 1012.61 1012.74 1013.24 1013.46 1013.44 1013.29 1013.00 1013.53 1013.98 1010.52 1009.55 1009.56 1009.00 1009.86 1011.49 1011.81 1012.15 1013.24 1013.57 1014.04 1014.38 1015.27 1013.62 1014.18 1014.87 1015.19 1013.80 1015.44 1014.72 1014.75 1015.53 1016.25 1016.60 1016.85 1016.19 1016.24 1012.47 1012.29 1011.84 1011.18 1010.78 1010.63 1010.50 1010.81
1011.34 1011.61 1012.03 1012.44 1012.73 1012.67 1013.10 1013.58 1013.52 1011.15 1008.23 1008.23 1007.93 1008.40 1009.68 1010.20 1010.76 1012.08 1012.66 1013.28 1013.96 1014.51 1014.01 1012.96 1013.66 1014.06 1012.90 1014.17 1014.40 1014.62 1015.07 1015.31 1015.95 1016.76 1016.64 1014.92 1015.64 1012.17 1011.96 1011.00 1010.80 1010.31 1010.36 1010.53 1010.93
1010.36 1010.69 1011.25 1011.84 1011.79 1012.11 1013.01 1013.59 1012.67 1007.65 1008.40 1007.66 1007.64 1007.85 1008.20 1008.78 1010.20 1010.96 1011.61 1011.88 1012.48 1013.26 1012.94 1013.29 1013.40 1013.21 1013.16 1013.94 1014.26 1014.56 1015.04 1015.66 1016.33 1016.21 1014.53 1014.01 1015.17 1011.43 1010.67 1010.45 1010.42 1010.47 1010.55 1011.04 1011.63
1009.49 1009.98 1010.24 1010.74 1011.21 1011.76 1012.50 1012.46 1009.87 1008.25 1007.40 1007.21 1007.17 1007.45 1007.60 1008.36 1009.04 1009.74 1010.64 1011.04 1011.92 1012.10 1011.89 1012.37 1012.87 1012.47 1011.97 1011.72 1012.45 1013.34 1013.72 1013.92 1014.15 1014.36 1013.92 1014.08 1013.45 1010.63 1009.86 1010.13 1010.42 1010.76 1011.19 1011.83 1012.38
1008.91 1009.55 1009.99 1009.84 1010.50 1011.36 1011.63 1009.82 1008.67 1008.35 1006.72 1007.15 1007.67 1007.05 1007.73 1007.97 1008.33 1009.54 1009.66 1009.90 1010.36 1010.73 1011.01 1011.56 1011.45 1010.83 1011.00 1011.24 1011.70 1012.38 1013.18 1011.51 1013.54 1014.08 1014.12 1013.37 1012.21 1010.74 1009.68 1009.96 1010.72 1011.41 1012.38 1012.87 1013.48
1008.91 1009.45 1008.79 1009.02 1009.72 1010.76 1010.33 1008.79 1008.86 1008.20 1007.56 1007.17 1006.70 1006.62 1007.00 1007.46 1008.36 1009.18 1009.59 1009.18 1009.75 1010.06 1010.28 1010.74 1010.89 1010.45 1010.57 1011.20 1011.07 1010.66 1010.53 1012.55 1013.15 1013.50 1013.57 1012.64 1011.83 1010.25 1009.58 1010.21 1010.90 1011.88 1012.83 1013.76 1014.50
1008.61 1009.12 1007.72 1007.88 1009.35 1009.86 1008.77 1008.68 1008.34 1007.39 1007.27 1007.23 1006.77 1006.61 1006.74 1007.13 1007.48 1008.36 1008.67 1008.91 1008.79 1009.36 1010.04 1009.92 1009.80 1010.32 1010.31 1010.17 1009.45 1010.13 1010.56 1011.07 1011.42 1012.21 1011.79 1011.97 1010.62 1009.37 1009.63 1010.09 1010.72 1012.01 1013.12 1014.00 1015.08
1008.03 1008.52 1007.61 1007.90 1008.77 1008.19 1008.13 1008.09 1007.41 1007.00 1007.03 1007.27 1007.32 1007.48 1007.78 1007.81 1007.59 1008.30 1008.71 1008.52 1008.85 1008.76 1008.47 1009.17 1009.69 1009.72 1009.27 1009.03 1008.78 1009.02 1009.37 1010.42 1010.50 1011.32 1011.02 1010.89 1010.48 1009.54 1009.68 1010.00 1010.88 1012.45 1013.95 1014.94 1015.70
1007.08 1007.94 1007.52 1007.48 1007.60 1007.81 1007.85 1007.45 1007.06 1006.87 1006.71 1007.16 1007.54 1007.98 1008.30 1007.94 1008.66 1008.58 1009.16 1008.95 1009.19 1009.15 1009.02 1009.17 1008.61 1009.00 1009.67 1009.96 1009.39 1009.04 1008.89 1009.18 1009.91 1010.47 1010.69 1010.88 1010.38 1009.85 1009.87 1010.60 1011.72 1012.65 1014.19 1015.40 1016.42
1006.60 1007.56 1007.56 1007.14 1007.36 1007.54 1007.57 1007.11 1006.93 1006.46 1006.79 1006.81 1006.96 1007.56 1008.23 1008.32 1008.06 1009.12 1009.13 1008.75 1008.94 1009.18 1009.22 1010.14 1008.58 1007.91 1007.38 1007.14 1007.76 1008.76 1008.65 1008.84 1009.18 1009.71 1010.00 1010.16 1010.23 1010.79 1011.13 1011.40 1012.61 1013.81 1014.76 1015.82 1016.85
1005.02 1006.17 1006.17 1007.15 1007.12 1007.29 1007.40 1007.16 1006.60 1006.45 1006.16 1006.39 1007.06 1007.20 1007.77 1009.01 1009.14 1009.19 1009.36 1009.29 1009.25 1008.98 1009.32 1010.17 1008.84 1008.19 1007.70 1007.32 1007.36 1007.28 1007.52 1008.01 1008.47 1008.63 1009.13 1009.27 1009.92 1010.76 1011.19 1011.85 1012.79 1013.94 1015.30 1016.34 1017.56
1003.22 1004.86 1006.43 1006.76 1006.47 1007.15 1006.70 1006.88 1006.31 1006.57 1006.28 1006.52 1006.30 1006.94 1007.23 1008.15 1008.36 1009.05 1009.36 1009.64 1009.14 1009.82 1009.25 1009.56 1009.63 1009.03 1007.60 1007.49 1007.03 1007.12 1006.99 1007.19 1007.58 1007.74 1008.84 1009.09 1009.80 1009.97 1011.44 1012.45 1014.00 1015.05 1015.79 1016.92 1018.14
1001.61 1002.99 1004.06 1005.76 1006.31 1006.98 1006.72 1006.41 1006.01 1005.70 1005.99 1005.99 1005.94 1006.76 1007.40 1007.20 1007.60 1007.98 1008.53 1008.97 1008.81 1009.15 1009.66 1009.96 1010.44 1010.72 1009.38 1007.43 1007.39 1007.14 1006.47 1006.56 1006.87 1006.88 1007.56 1008.59 1008.71 1010.43 1012.19 1013.11 1014.05 1015.37 1016.48 1017.51 1018.70
Wind_Speed
13 12 13 14 12 13 10 7 6 7 6 5 5 6 8 11 10 2 6 9 1 7 5 4 1 2 1 1 3 4 4 5 7 8 7 2 2 4 1 3 4 4 2 4 10
15 15 11 12 12 11 12 10 9 9 7 8 6 7 8 11 3 10 8 12 5 2 2 2 2 1 1 3 2 5 5 11 7 6 3 2 2 3 3 2 3 3 4 5 6
13 13 11 11 10 11 9 11 12 10 9 7 9 7 7 6 5 4 4 8 14 2 1 1 2 2 3 3 4 5 7 5 4 3 2 1 3 5 2 3 5 7 6 5 4
13 13 11 9 10 12 13 12 12 12 11 7 9 9 4 3 5 1 1 4 3 2 1 1 3 3 5 6 6 4 8 6 3 2 1 1 2 6 2 4 2 6 14 6 7
13 12 14 13 13 15 15 15 14 12 12 11 9 6 1 3 9 5 7 4 2 3 4 3 4 5 7 5 3 3 3 5 6 5 5 3 7 7 5 6 5 4 10 11 9
14 14 14 14 15 16 14 12 11 7 6 10 15 7 3 10 6 7 4 2 3 4 4 5 6 4 4 4 6 2 5 8 7 6 4 4 5 7 8 2 6 7 10 9 10
17 15 16 17 17 17 14 12 12 11 11 10 12 9 12 15 5 2 2 2 3 3 2 5 4 2 4 4 3 4 4 5 5 3 7 5 10 9 12 6 7 9 8 9 11
18 17 16 17 17 15 14 12 12 12 14 13 11 7 17 12 16 4 4 4 6 4 3 5 7 2 3 5 7 3 4 6 3 9 5 10 14 5 14 7 12 12 9 9 11
18 16 18 18 15 15 15 14 13 14 15 14 6 4 13 10 10 11 12 6 3 4 3 4 6 6 3 3 4 4 4 5 3 7 7 10 2 10 11 8 10 10 10 9 9
18 16 17 18 19 19 17 16 15 15 7 3 5 3 9 5 8 7 6 9 4 2 2 4 3 5 4 8 14 6 5 6 9 8 8 9 13 6 5 7 10 9 9 8 10
20 20 19 19 20 21 16 7 5 6 10 11 10 14 1 13 4 7 11 10 2 1 7 4 7 20 32 16 2 4 5 7 4 6 7 14 17 12 11 7 8 7 8 8 11
20 21 19 20 20 20 16 13 16 5 6 21 19 17 19 6 6 4 14 11 11 15 4 6 24 16 8 11 12 10 4 6 5 6 4 7 11 9 15 15 12 11 10 10 5
19 20 20 19 18 12 14 23 9 0 6 7 23 20 9 16 11 14 19 14 16 16 16 12 5 19 11 9 16 19 19 7 4 1 2 2 9 5 7 7 6 8 9 7 10
21 19 20 19 12 8 13 10 12 6 8 12 15 11 18 11 10 8 18 18 10 22 17 16 17 4 8 16 13 14 15 9 7 1 6 4 9 7 6 12 16 14 11 14 11
20 20 20 18 3 5 2 3 13 5 15 13 18 5 16 23 11 19 11 13 14 14 10 13 12 18 16 19 13 12 8 14 9 6 1 6 3 6 6 10 13 17 18 16 13
21 20 20 11 10 11 8 5 9 15 14 3 15 17 17 24 28 10 18 11 5 12 16 27 7 11 18 8 17 5 1 4 4 6 11 17 11 6 8 10 8 7 9 9 9
21 19 15 5 8 6 5 3 9 25 9 7 16 20 27 22 28 22 20 20 15 12 16 13 15 3 5 11 8 9 10 3 6 7 12 10 8 22 5 3 6 4 9 5 8
17 17 10 8 6 6 5 9 15 12 8 1 9 21 28 20 22 28 24 21 19 9 8 14 10 20 5 11 10 17 17 6 10 7 11 8 11 12 11 18 11 3 4 9 9
14 1 3 5 8 7 6 13 5 6 4 8 11 17 16 18 9 21 25 24 22 17 13 13 14 3 12 4 15 7 15 19 3 3 3 5 7 10 8 7 6 9 7 10 12
4 2 8 7 10 7 10 19 8 8 5 9 20 12 14 21 15 18 22 17 18 22 16 7 7 8 19 6 13 14 20 8 7 7 6 5 5 13 3 9 11 10 12 11 12
4 3 3 10 9 5 9 7 5 4 3 6 9 3 2 13 21 12 8 7 25 17 24 11 8 2 12 12 22 13 14 6 6 5 11 5 7 7 10 10 18 14 14 15 13
5 5 2 9 9 3 8 6 4 5 11 3 2 1 4 1 11 11 10 3 2 20 22 20 6 9 19 9 19 22 19 17 10 8 9 3 8 2 4 7 16 16 11 11 12
4 3 4 4 5 5 3 4 6 3 8 11 9 5 3 7 6 6 4 7 4 4 3 13 8 8 9 2 4 15 16 19 16 2 11 12 9 5 2 11 14 19 15 13 11
5 5 2 6 3 6 4 3 5 6 5 2 4 5 5 3 5 6 7 5 9 7 5 2 9 11 13 13 11 10 21 16 19 13 13 13 7 2 5 18 15 14 13 12 10
5 6 7 6 4 5 7 6 2 1 0 6 2 3 7 4 3 3 1 2 1 1 7 4 7 12 16 7 10 18 20 24 20 23 18 17 20 10 14 18 17 15 14 14 11
8 6 2 4 10 5 10 6 12 6 4 2 3 10 5 8 8 8 7 3 5 1 2 3 5 10 24 11 13 17 21 22 24 24 16 10 6 10 10 9 11 12 13 12 11
3 3 7 7 4 7 6 8 10 9 3 7 11 6 3 7 5 4 6 4 6 8 4 5 6 5 11 9 8 4 18 19 22 24 23 15 12 10 9 14 15 13 11 12 11
Wind_Direction
302 298 297 297 292 276 255 258 261 259 268 301 328 345 340 331 325 270 251 238 292 290 314 304 306 275 71 256 191 119 91 216 212 166 233 335 10 330 276 107 52 14 134 300 128
295 281 275 302 287 291 273 266 257 261 275 283 294 310 328 327 314 280 247 275 279 316 256 224 239 200 164 218 214 133 162 213 211 201 200 325 340 323 320 139 43 29 3 62 116
296 290 280 288 291 292 285 285 277 263 258 267 278 289 331 348 332 254 276 305 231 269 284 105 328 234 201 170 204 185 199 206 244 192 135 202 296 325 240 220 199 185 188 184 157
290 288 275 274 288 290 286 276 276 274 268 252 265 289 343 44 276 208 289 357 93 255 269 230 219 188 197 200 217 184 231 217 211 177 137 168 294 311 316 280 242 212 172 170 187
284 285 282 278 283 282 281 274 263 267 268 264 256 257 16 259 249 275 259 301 157 140 209 203 204 181 186 197 217 216 250 219 228 251 261 179 222 223 254 246 327 103 149 177 193
286 284 279 276 271 270 261 265 267 252 266 271 259 231 169 237 251 278 240 318 224 184 201 191 218 242 250 231 173 211 202 260 276 227 228 219 247 162 247 195 203 175 193 199 197
281 275 276 269 262 250 251 248 257 261 257 260 275 246 220 232 200 131 16 256 260 155 211 213 245 335 353 297 302 252 268 272 238 218 212 172 274 222 234 211 237 223 223 214 213
279 274 271 266 257 251 250 250 261 272 271 265 266 256 258 212 231 251 277 323 262 237 208 241 205 280 216 314 339 217 157 226 238 169 232 145 241 259 237 187 231 244 229 218 223
285 282 276 265 260 243 245 247 251 259 265 276 272 201 264 180 187 213 219 217 255 266 266 261 145 174 182 145 343 268 214 202 293 202 177 191 221 229 232 194 233 239 238 234 235
286 281 279 275 263 250 248 243 245 250 257 278 245 251 234 190 170 214 175 178 219 228 258 195 163 171 182 175 211 190 196 222 201 221 202 220 234 291 236 190 221 244 254 227 231
283 285 281 277 268 256 243 243 228 237 200 205 197 215 150 206 100 198 168 164 140 233 191 216 182 209 210 204 169 195 200 212 224 243 208 242 250 230 253 250 234 238 263 246 227
275 274 277 281 275 269 247 222 208 192 222 218 244 230 241 158 174 163 143 162 184 205 192 188 219 212 152 193 214 237 227 243 289 256 176 287 266 224 225 242 238 245 236 244 229
278 276 270 262 272 282 262 238 202 83 256 211 214 229 212 209 201 179 168 184 191 200 197 207 194 193 184 175 197 219 221 199 199 21 243 348 285 201 246 251 245 238 228 229 218
270 269 267 264 261 255 243 277 231 105 239 203 193 238 193 207 231 176 188 171 205 206 200 233 240 168 195 211 189 217 221 227 212 187 249 145 276 266 215 225 236 235 224 231 219
263 261 263 244 202 225 270 227 214 153 239 188 191 167 178 193 130 187 187 207 200 175 170 215 176 214 229 217 198 233 174 192 195 200 179 241 262 251 200 225 237 242 237 235 217
261 255 259 260 247 245 242 358 273 216 234 189 156 169 158 197 209 142 188 197 151 202 200 223 171 183 224 176 200 154 164 111 144 183 231 223 190 232 193 213 239 249 248 227 193
264 256 250 208 235 193 161 141 249 221 132 179 174 173 186 188 203 192 197 195 183 182 192 212 221 237 153 192 193 182 151 186 208 202 224 203 183 244 241 248 229 256 274 157 118
262 254 245 223 194 156 179 221 228 256 168 192 166 182 192 177 205 197 199 205 200 214 174 198 198 217 185 197 192 204 200 182 198 198 227 118 211 240 228 232 236 49 127 122 109
257 247 206 201 173 169 218 231 222 216 194 165 183 173 195 190 150 200 213 208 204 202 201 193 225 167 203 153 163 194 202 212 79 37 113 200 267 300 236 236 160 131 129 115 107
134 184 236 166 168 189 233 237 246 201 226 242 192 172 178 183 182 194 191 207 212 199 216 215 218 204 205 140 207 182 195 174 203 172 211 240 231 226 172 189 162 146 141 123 116
121 222 254 159 145 193 229 226 212 223 184 192 244 258 225 170 184 177 186 182 208 207 203 200 198 250 135 194 195 202 194 207 184 183 213 221 239 220 210 186 175 154 148 137 125
142 224 197 154 196 219 230 190 182 206 197 211 124 87 234 172 181 185 186 153 0 198 204 208 219 209 197 195 216 203 202 203 211 190 227 224 255 4 260 188 150 140 127 118 114
175 195 197 164 215 204 214 205 205 153 172 168 168 166 250 162 115 133 146 157 141 131 230 188 201 183 180 251 338 202 205 206 214 118 200 210 243 13 92 137 147 138 137 127 118
139 191 271 200 154 161 191 194 179 163 171 110 108 125 98 351 26 174 169 165 148 156 244 216 223 214 207 196 152 182 208 205 203 217 217 213 241 60 127 137 141 139 132 124 117
155 209 187 186 186 167 172 172 124 110 238 138 159 157 147 141 39 136 189 73 80 161 110 182 247 224 216 236 173 191 203 204 206 215 209 218 221 179 173 161 155 142 132 123 115
160 151 357 171 145 147 174 215 176 174 146 181 191 202 152 160 179 182 147 174 191 259 113 102 331 300 227 205 193 203 212 208 208 215 221 218 228 171 153 118 136 147 137 127 121
150 87 123 174 110 123 210 189 194 141 204 199 204 128 179 210 167 171 169 146 156 154 133 131 100 14 295 180 114 226 206 199 204 217 209 200 203 138 145 158 154 148 142 133 125